• In Latvia
  • List of Countries
  • For 7 days
  • Water Temperature
  • Satellite Maps
  • Weather Map
  • Weather Widgets
  • user-avatar
    Login

    Hourly Weather Baden-Baden

    Today, 24 September, Monday

    Time Temperature Precipitation Wind Pressure Humidity
    00:00 +9°C° 0 mm 3 mps 735 mmHg 89%
    01:00 +8°C° 0 mm 2 mps 737 mmHg 90%
    02:00 +8°C° 0.1 mm 2 mps 738 mmHg 91%
    03:00 +7°C° 0.1 mm 2 mps 738 mmHg 92%
    04:00 +8°C° 0.1 mm 1 mps 739 mmHg 92%
    05:00 +8°C° 0 mm 1 mps 740 mmHg 92%
    06:00 +8°C° 0 mm 1 mps 740 mmHg 92%
    07:00 +8°C° 0 mm 1 mps 741 mmHg 91%
    08:00 +8°C° 0 mm 2 mps 742 mmHg 83%
    09:00 +9°C° 0 mm 2 mps 742 mmHg 74%
    10:00 +12°C° 0 mm 2 mps 742 mmHg 66%
    11:00 +13°C° 0 mm 2 mps 742 mmHg 58%
    12:00 +13°C° 0 mm 3 mps 742 mmHg 50%
    13:00 +14°C° 0 mm 3 mps 743 mmHg 42%
    14:00 +14°C° 0 mm 3 mps 743 mmHg 43%
    15:00 +14°C° 0 mm 3 mps 742 mmHg 44%
    16:00 +14°C° 0 mm 3 mps 742 mmHg 44%
    17:00 +13°C° 0 mm 2 mps 742 mmHg 51%
    18:00 +10°C° 0 mm 2 mps 742 mmHg 57%
    19:00 +10°C° 0 mm 1 mps 743 mmHg 64%
    20:00 +9°C° 0 mm 1 mps 743 mmHg 67%
    21:00 +9°C° 0 mm 1 mps 743 mmHg 69%
    22:00 +8°C° 0 mm 1 mps 744 mmHg 72%
    23:00 +8°C° 0 mm 1 mps 744 mmHg 74%

    Tomorrow, 25 September, Tuesday

    Time Temperature Precipitation Wind Pressure Humidity
    00:00 +7°C° 0 mm 1 mps 744 mmHg 77%
    01:00 +7°C° 0 mm 1 mps 744 mmHg 79%
    02:00 +7°C° 0 mm 1 mps 744 mmHg 81%
    03:00 +6°C° 0 mm 1 mps 744 mmHg 83%
    04:00 +6°C° 0 mm 1 mps 744 mmHg 84%
    05:00 +6°C° 0 mm 1 mps 744 mmHg 84%
    06:00 +5°C° 0 mm 2 mps 744 mmHg 84%
    07:00 +5°C° 0 mm 2 mps 744 mmHg 84%
    08:00 +7°C° 0 mm 2 mps 744 mmHg 75%
    09:00 +9°C° 0 mm 3 mps 744 mmHg 65%
    10:00 +11°C° 0 mm 4 mps 745 mmHg 55%
    11:00 +12°C° 0 mm 4 mps 744 mmHg 51%
    12:00 +13°C° 0 mm 4 mps 744 mmHg 46%
    13:00 +14°C° 0 mm 4 mps 744 mmHg 42%
    14:00 +14°C° 0 mm 4 mps 744 mmHg 41%
    15:00 +14°C° 0 mm 4 mps 743 mmHg 41%
    16:00 +14°C° 0 mm 4 mps 743 mmHg 40%
    17:00 +12°C° 0 mm 4 mps 743 mmHg 46%
    18:00 +11°C° 0 mm 3 mps 743 mmHg 51%
    19:00 +9°C° 0 mm 3 mps 743 mmHg 56%
    20:00 +8°C° 0 mm 3 mps 743 mmHg 59%
    21:00 +7°C° 0 mm 2 mps 743 mmHg 61%
    22:00 +7°C° 0 mm 2 mps 743 mmHg 64%
    23:00 +6°C° 0 mm 2 mps 743 mmHg 65%

    Day after tomorrow, 26 September, Wednesday

    Time Temperature Precipitation Wind Pressure Humidity
    00:00 +6°C° 0 mm 2 mps 743 mmHg 67%
    01:00 +5°C° 0 mm 2 mps 743 mmHg 68%
    02:00 +5°C° 0 mm 2 mps 743 mmHg 69%
    03:00 +4°C° 0 mm 2 mps 742 mmHg 70%
    04:00 +5°C° 0 mm 1 mps 742 mmHg 71%
    05:00 +5°C° 0 mm 1 mps 742 mmHg 71%
    06:00 +5°C° 0 mm 1 mps 742 mmHg 70%
    07:00 +5°C° 0 mm 1 mps 743 mmHg 70%
    08:00 +8°C° 0 mm 1 mps 743 mmHg 62%
    09:00 +11°C° 0 mm 1 mps 743 mmHg 53%
    10:00 +14°C° 0 mm 1 mps 743 mmHg 45%
    11:00 +16°C° 0 mm 1 mps 743 mmHg 42%
    12:00 +19°C° 0 mm 1 mps 743 mmHg 38%
    13:00 +21°C° 0 mm 1 mps 742 mmHg 34%
    14:00 +21°C° 0 mm 1 mps 742 mmHg 35%
    15:00 +21°C° 0 mm 1 mps 742 mmHg 35%
    16:00 +21°C° 0 mm 1 mps 742 mmHg 36%
    17:00 +18°C° 0 mm 1 mps 741 mmHg 42%
    18:00 +15°C° 0 mm 1 mps 741 mmHg 48%
    19:00 +12°C° 0 mm 1 mps 741 mmHg 55%
    20:00 +12°C° 0 mm 1 mps 741 mmHg 56%
    21:00 +11°C° 0 mm 1 mps 742 mmHg 58%
    22:00 +11°C° 0 mm 1 mps 742 mmHg 59%
    23:00 +10°C° 0 mm 1 mps 742 mmHg 61%

    27 September, Thursday

    Time Temperature Precipitation Wind Pressure Humidity
    00:00 +10°C° 0 mm 1 mps 742 mmHg 62%
    01:00 +10°C° 0 mm 1 mps 742 mmHg 64%
    02:00 +9°C° 0 mm 1 mps 741 mmHg 66%
    03:00 +9°C° 0 mm 1 mps 741 mmHg 67%
    04:00 +9°C° 0 mm 1 mps 741 mmHg 69%
    05:00 +9°C° 0 mm 1 mps 741 mmHg 69%
    06:00 +9°C° 0 mm 1 mps 741 mmHg 69%
    07:00 +9°C° 0 mm 1 mps 741 mmHg 69%
    08:00 +11°C° 0 mm 0 mps 741 mmHg 61%
    09:00 +14°C° 0 mm 0 mps 741 mmHg 53%
    10:00 +17°C° 0 mm 0 mps 741 mmHg 45%
    11:00 +19°C° 0 mm 0 mps 741 mmHg 42%
    12:00 +20°C° 0 mm 0 mps 741 mmHg 39%
    13:00 +22°C° 0 mm 0 mps 740 mmHg 36%
    14:00 +22°C° 0 mm 0 mps 740 mmHg 37%
    15:00 +22°C° 0 mm 0 mps 739 mmHg 38%
    16:00 +22°C° 0 mm 0 mps 738 mmHg 38%
    17:00 +19°C° 0 mm 0 mps 738 mmHg 45%
    18:00 +17°C° 0 mm 0 mps 738 mmHg 52%
    19:00 +14°C° 0 mm 0 mps 737 mmHg 59%
    20:00 +14°C° 0 mm 0 mps 737 mmHg 61%
    21:00 +14°C° 0 mm 1 mps 737 mmHg 63%
    22:00 +14°C° 0 mm 1 mps 737 mmHg 65%
    23:00 +13°C° 0 mm 1 mps 737 mmHg 66%

    28 September, Friday

    Time Temperature Precipitation Wind Pressure Humidity
    00:00 +13°C° 0 mm 1 mps 737 mmHg 68%
    01:00 +13°C° 0 mm 1 mps 736 mmHg 70%
    02:00 +12°C° 0 mm 1 mps 736 mmHg 71%
    03:00 +12°C° 0 mm 1 mps 736 mmHg 73%
    04:00 +12°C° 0 mm 1 mps 736 mmHg 75%
    05:00 +12°C° 0 mm 1 mps 736 mmHg 76%
    06:00 +12°C° 0 mm 1 mps 736 mmHg 77%
    07:00 +12°C° 0 mm 1 mps 735 mmHg 79%
    08:00 +14°C° 0 mm 1 mps 736 mmHg 71%
    09:00 +18°C° 0 mm 1 mps 736 mmHg 64%
    10:00 +20°C° 0 mm 1 mps 736 mmHg 56%
    11:00 +21°C° 0 mm 1 mps 736 mmHg 52%
    12:00 +22°C° 0 mm 1 mps 736 mmHg 48%
    13:00 +23°C° 0 mm 2 mps 735 mmHg 43%
    14:00 +23°C° 0 mm 2 mps 735 mmHg 44%
    15:00 +23°C° 0 mm 2 mps 735 mmHg 44%
    16:00 +23°C° 0 mm 2 mps 734 mmHg 44%
    17:00 +20°C° 0 mm 2 mps 734 mmHg 51%
    18:00 +18°C° 0 mm 1 mps 734 mmHg 57%
    19:00 +15°C° 0 mm 1 mps 734 mmHg 64%
    20:00 +14°C° 0 mm 1 mps 734 mmHg 66%
    21:00 +13°C° 0 mm 1 mps 735 mmHg 68%
    22:00 +13°C° 0 mm 1 mps 735 mmHg 70%
    23:00 +12°C° 0 mm 1 mps 735 mmHg 72%

    29 September, Saturday

    Time Temperature Precipitation Wind Pressure Humidity
    00:00 +12°C° 0 mm 1 mps 735 mmHg 74%
    01:00 +11°C° 0 mm 1 mps 735 mmHg 76%
    02:00 +10°C° 0 mm 2 mps 735 mmHg 79%
    03:00 +9°C° 0 mm 2 mps 735 mmHg 83%
    04:00 +9°C° 0 mm 2 mps 735 mmHg 86%
    05:00 +9°C° 0 mm 2 mps 735 mmHg 87%
    06:00 +9°C° 0 mm 2 mps 736 mmHg 89%
    07:00 +8°C° 0 mm 2 mps 736 mmHg 90%
    08:00 +10°C° 0 mm 2 mps 736 mmHg 83%
    09:00 +12°C° 0 mm 3 mps 736 mmHg 77%
    10:00 +13°C° 0 mm 3 mps 736 mmHg 70%
    11:00 +16°C° 0 mm 3 mps 736 mmHg 65%
    12:00 +17°C° 0 mm 3 mps 736 mmHg 60%
    13:00 +18°C° 0 mm 3 mps 735 mmHg 55%
    14:00 +18°C° 0 mm 3 mps 735 mmHg 55%
    15:00 +18°C° 0 mm 3 mps 735 mmHg 54%
    16:00 +18°C° 0 mm 3 mps 734 mmHg 54%
    17:00 +16°C° 0 mm 3 mps 734 mmHg 60%
    18:00 +14°C° 0 mm 3 mps 734 mmHg 66%
    19:00 +13°C° 0 mm 2 mps 734 mmHg 72%
    20:00 +12°C° 0 mm 2 mps 734 mmHg 73%
    21:00 +10°C° 0 mm 2 mps 734 mmHg 74%
    22:00 +10°C° 0 mm 2 mps 734 mmHg 75%
    23:00 +10°C° 0 mm 1 mps 734 mmHg 77%
    Show more